WXM80 ListenWXM80 Stop

You find our weather info also at:

UK Metoffice

WeatherCloud

Weather Underground

Northeastern Weather Network

AWEKAS

Citizen Weather Observer Program (CWOP)

HAMweather, WeatherForYou, PWS Weather


Weather Underground History page Text

Daily Summary for January 7, 2017 Units:  English    Metric   Both
« Previous Day
Next Day »
Daily Weekly Monthly Yearly Custom
  High: Low: Average:
Temperature: 26.3 °F 21.1 °F 23.2 °F
Dew Point: 21.1 °F 11.2 °F 17.1 °F
Humidity: 94 % 58 % 78 %
Wind Speed: 14.9 mph 3.0 mph 7.7 mph
Wind Gust: 29.0 mph - -
Wind:- - ESE
Pressure: 30.31 in 30.04 in -
Precipitation: 0.24 in    
Historical Graphs
 
 
Tabular Data for January 7, 2017
Time Temperature Dew Point Pressure Wind Wind Speed Wind Gust Humidity Rainfall Rate (Hourly)
00:03 26.3 °F 13.9 °F 30.25 in NNE 7.1 mph 29.0 mph 59 % 0.00 in
00:08 26.2 °F 13.8 °F 30.26 in NNE 7.5 mph 29.0 mph 59 % 0.00 in
00:13 26.1 °F 13.7 °F 30.26 in NNW 5.6 mph 29.0 mph 59 % 0.00 in
00:18 26.0 °F 13.6 °F 30.26 in NE 5.9 mph 29.0 mph 59 % 0.00 in
00:23 25.9 °F 13.5 °F 30.27 in NNE 6.6 mph 29.0 mph 59 % 0.00 in
00:28 25.8 °F 13.4 °F 30.27 in North 5.1 mph 29.0 mph 59 % 0.00 in
00:33 25.7 °F 13.7 °F 30.27 in NNE 6.7 mph 29.0 mph 60 % 0.00 in
00:38 25.6 °F 13.6 °F 30.27 in North 5.9 mph 29.0 mph 60 % 0.00 in
00:43 25.6 °F 13.2 °F 30.27 in North 6.1 mph 29.0 mph 59 % 0.00 in
00:48 25.4 °F 13.4 °F 30.26 in North 5.5 mph 29.0 mph 60 % 0.00 in
00:53 25.4 °F 13.4 °F 30.26 in NNE 7.2 mph 29.0 mph 60 % 0.00 in
00:58 25.3 °F 13.3 °F 30.26 in NNW 4.9 mph 29.0 mph 60 % 0.00 in
01:03 25.2 °F 13.2 °F 30.26 in NNE 7.1 mph 29.0 mph 60 % 0.00 in
01:08 25.1 °F 12.8 °F 30.26 in NNE 8.5 mph 29.0 mph 59 % 0.00 in
01:13 25.0 °F 12.7 °F 30.27 in NNE 5.6 mph 29.0 mph 59 % 0.00 in
01:18 24.9 °F 12.2 °F 30.26 in NNE 8.8 mph 29.0 mph 58 % 0.00 in
01:24 24.9 °F 12.6 °F 30.27 in NNE 6.5 mph 29.0 mph 59 % 0.00 in
01:29 24.9 °F 13.3 °F 30.26 in NNW 9.1 mph 29.0 mph 61 % 0.00 in
01:34 24.8 °F 12.9 °F 30.26 in NE 6.5 mph 29.0 mph 60 % 0.00 in
01:39 24.7 °F 12.8 °F 30.26 in NNE 7.6 mph 29.0 mph 60 % 0.00 in
01:44 24.7 °F 12.8 °F 30.27 in NNE 6.6 mph 29.0 mph 60 % 0.00 in
01:49 24.6 °F 12.7 °F 30.27 in NNE 6.5 mph 29.0 mph 60 % 0.00 in
01:54 24.6 °F 12.7 °F 30.27 in NE 6.5 mph 29.0 mph 60 % 0.00 in
01:59 24.6 °F 13.1 °F 30.27 in NNE 9.7 mph 29.0 mph 61 % 0.00 in
02:04 24.6 °F 12.6 °F 30.28 in NNE 8.0 mph 15.0 mph 60 % 0.00 in
02:09 24.5 °F 12.6 °F 30.28 in NNE 7.0 mph 12.0 mph 60 % 0.00 in
02:14 24.5 °F 12.6 °F 30.28 in NNE 8.0 mph 13.0 mph 60 % 0.00 in
02:19 24.5 °F 12.2 °F 30.29 in NNE 5.0 mph 12.0 mph 59 % 0.00 in
02:24 24.5 °F 13.0 °F 30.29 in North 8.0 mph 12.0 mph 61 % 0.00 in
02:29 24.5 °F 12.6 °F 30.29 in NNE 9.0 mph 15.0 mph 60 % 0.00 in
02:34 24.4 °F 12.1 °F 30.30 in NNE 7.0 mph 13.0 mph 59 % 0.00 in
02:39 24.4 °F 12.5 °F 30.30 in NNE 7.0 mph 12.0 mph 60 % 0.00 in
02:44 24.4 °F 12.5 °F 30.30 in NNE 6.0 mph 9.0 mph 60 % 0.00 in
02:49 24.4 °F 12.5 °F 30.29 in NNE 8.0 mph 13.0 mph 60 % 0.00 in
02:50 24.4 °F 12.5 °F 30.29 in NNE 6.5 mph 29.0 mph 60 % 0.00 in
02:55 24.3 °F 12.0 °F 30.30 in NNE 5.6 mph 29.0 mph 59 % 0.00 in
03:00 24.3 °F 12.4 °F 30.30 in NNE 5.7 mph 29.0 mph 60 % 0.00 in
03:05 24.3 °F 12.0 °F 30.30 in North 4.8 mph 29.0 mph 59 % 0.00 in
03:10 24.3 °F 11.6 °F 30.30 in NNE 5.2 mph 29.0 mph 58 % 0.00 in
03:15 24.3 °F 12.4 °F 30.30 in NNE 5.9 mph 29.0 mph 60 % 0.00 in
03:20 24.3 °F 12.4 °F 30.30 in NNE 3.2 mph 29.0 mph 60 % 0.00 in
03:25 24.3 °F 12.4 °F 30.29 in NNE 7.6 mph 29.0 mph 60 % 0.00 in
03:30 24.2 °F 11.9 °F 30.30 in NE 5.6 mph 29.0 mph 59 % 0.00 in
03:35 24.2 °F 11.5 °F 30.30 in NNW 5.7 mph 29.0 mph 58 % 0.00 in
03:41 24.1 °F 11.8 °F 30.30 in NE 8.8 mph 29.0 mph 59 % 0.00 in
03:46 24.1 °F 11.8 °F 30.30 in NE 4.4 mph 29.0 mph 59 % 0.00 in
03:51 24.1 °F 11.8 °F 30.30 in ENE 3.2 mph 29.0 mph 59 % 0.00 in
03:56 24.0 °F 12.1 °F 30.30 in NNE 4.9 mph 29.0 mph 60 % 0.00 in
04:01 24.0 °F 11.7 °F 30.30 in NNE 5.2 mph 29.0 mph 59 % 0.00 in
04:06 23.9 °F 11.6 °F 30.30 in NNE 8.5 mph 29.0 mph 59 % 0.00 in
04:11 23.9 °F 11.3 °F 30.29 in North 7.9 mph 29.0 mph 58 % 0.00 in
04:16 23.8 °F 11.5 °F 30.29 in NNE 6.1 mph 29.0 mph 59 % 0.00 in
04:21 23.8 °F 11.2 °F 30.30 in NNE 6.4 mph 29.0 mph 58 % 0.00 in
04:26 23.8 °F 11.5 °F 30.30 in NNE 5.6 mph 29.0 mph 59 % 0.00 in
04:31 23.8 °F 11.9 °F 30.30 in NNE 8.7 mph 29.0 mph 60 % 0.00 in
04:36 23.9 °F 12.8 °F 30.31 in North 5.3 mph 29.0 mph 62 % 0.00 in
04:41 23.9 °F 12.4 °F 30.31 in North 5.3 mph 29.0 mph 61 % 0.00 in
04:47 23.9 °F 12.0 °F 30.31 in NNW 7.1 mph 29.0 mph 60 % 0.00 in
04:52 24.0 °F 12.1 °F 30.30 in NNE 6.4 mph 29.0 mph 60 % 0.00 in
04:57 24.0 °F 12.1 °F 30.31 in NNE 4.9 mph 29.0 mph 60 % 0.00 in
05:02 23.9 °F 12.0 °F 30.30 in NE 6.4 mph 29.0 mph 60 % 0.00 in
05:07 23.9 °F 12.8 °F 30.30 in NNE 6.9 mph 29.0 mph 62 % 0.00 in
05:12 23.9 °F 12.4 °F 30.30 in NE 6.8 mph 29.0 mph 61 % 0.00 in
05:17 23.9 °F 12.4 °F 30.30 in NNE 6.3 mph 29.0 mph 61 % 0.00 in
05:22 23.9 °F 12.4 °F 30.30 in NNE 5.0 mph 29.0 mph 61 % 0.00 in
05:27 23.9 °F 12.0 °F 30.30 in NNE 5.6 mph 29.0 mph 60 % 0.00 in
05:32 23.9 °F 12.4 °F 30.30 in North 6.7 mph 29.0 mph 61 % 0.00 in
05:37 23.9 °F 12.4 °F 30.30 in NE 6.6 mph 29.0 mph 61 % 0.00 in
05:42 23.9 °F 12.4 °F 30.29 in NNE 7.0 mph 29.0 mph 61 % 0.00 in
05:47 23.9 °F 12.8 °F 30.29 in NNE 8.7 mph 29.0 mph 62 % 0.00 in
05:52 23.8 °F 12.3 °F 30.29 in NNE 4.2 mph 29.0 mph 61 % 0.00 in
05:57 23.8 °F 12.7 °F 30.29 in NNE 8.0 mph 29.0 mph 62 % 0.00 in
06:02 23.8 °F 13.0 °F 30.29 in NNE 8.0 mph 29.0 mph 63 % 0.00 in
06:07 23.8 °F 13.0 °F 30.28 in NNE 9.0 mph 29.0 mph 63 % 0.00 in
06:12 23.8 °F 12.7 °F 30.28 in NNE 5.7 mph 29.0 mph 62 % 0.00 in
06:18 23.8 °F 12.7 °F 30.27 in NNE 6.1 mph 29.0 mph 62 % 0.00 in
06:23 23.8 °F 13.0 °F 30.27 in NNE 7.5 mph 29.0 mph 63 % 0.00 in
06:28 23.8 °F 13.0 °F 30.26 in NNE 6.0 mph 29.0 mph 63 % 0.00 in
06:33 23.8 °F 13.4 °F 30.26 in NNE 7.5 mph 29.0 mph 64 % 0.00 in
06:38 23.8 °F 13.4 °F 30.26 in NNE 6.6 mph 29.0 mph 64 % 0.00 in
06:43 23.8 °F 13.7 °F 30.26 in NNE 6.7 mph 29.0 mph 65 % 0.00 in
06:48 23.8 °F 13.7 °F 30.25 in NNE 5.9 mph 29.0 mph 65 % 0.00 in
06:53 23.9 °F 14.2 °F 30.27 in NE 8.5 mph 29.0 mph 66 % 0.00 in
07:03 23.9 °F 13.8 °F 30.26 in NNE 6.5 mph 29.0 mph 65 % 0.00 in
07:08 23.8 °F 13.7 °F 30.25 in NE 7.1 mph 29.0 mph 65 % 0.00 in
07:13 23.9 °F 13.8 °F 30.25 in NNE 9.0 mph 29.0 mph 65 % 0.00 in
07:18 23.9 °F 13.8 °F 30.26 in NE 5.4 mph 29.0 mph 65 % 0.00 in
07:24 23.9 °F 14.2 °F 30.27 in NNE 5.5 mph 29.0 mph 66 % 0.00 in
07:29 23.9 °F 14.2 °F 30.27 in NE 7.5 mph 29.0 mph 66 % 0.00 in
07:34 23.9 °F 14.2 °F 30.26 in NE 8.1 mph 29.0 mph 66 % 0.00 in
07:39 23.9 °F 14.2 °F 30.26 in NNE 7.3 mph 29.0 mph 66 % 0.00 in
07:44 24.0 °F 14.3 °F 30.28 in NNE 8.7 mph 29.0 mph 66 % 0.00 in
07:49 24.0 °F 14.3 °F 30.28 in NNE 8.0 mph 29.0 mph 66 % 0.00 in
07:54 24.0 °F 13.9 °F 30.29 in NNE 3.8 mph 29.0 mph 65 % 0.00 in
08:04 24.1 °F 14.0 °F 30.27 in NNE 5.0 mph 14.0 mph 65 % 0.00 in
08:09 24.1 °F 14.0 °F 30.27 in NNE 3.0 mph 12.0 mph 65 % 0.00 in
08:14 24.2 °F 14.1 °F 30.27 in NNW 5.6 mph 29.0 mph 65 % 0.00 in
08:19 24.2 °F 14.1 °F 30.27 in NNE 7.0 mph 12.0 mph 65 % 0.00 in
08:24 24.2 °F 14.5 °F 30.26 in NNE 6.0 mph 13.0 mph 66 % 0.00 in
08:29 24.3 °F 14.6 °F 30.28 in NNE 5.0 mph 9.0 mph 66 % 0.00 in
08:34 24.4 °F 14.3 °F 30.27 in NE 4.2 mph 29.0 mph 65 % 0.00 in
08:39 24.5 °F 14.4 °F 30.27 in NE 7.0 mph 12.0 mph 65 % 0.00 in
08:44 24.6 °F 14.8 °F 30.27 in NE 7.0 mph 13.0 mph 66 % 0.00 in
08:49 24.7 °F 14.9 °F 30.27 in NNE 4.6 mph 29.0 mph 66 % 0.00 in
08:54 24.7 °F 14.9 °F 30.27 in NE 6.0 mph 12.0 mph 66 % 0.00 in
08:59 24.7 °F 14.9 °F 30.29 in East 6.7 mph 29.0 mph 66 % 0.00 in
09:04 24.8 °F 14.7 °F 30.29 in NE 7.3 mph 29.0 mph 65 % 0.00 in
09:09 24.7 °F 14.6 °F 30.27 in ENE 8.1 mph 29.0 mph 65 % 0.00 in
09:14 24.7 °F 14.9 °F 30.27 in ENE 5.0 mph 29.0 mph 66 % 0.00 in
09:19 24.7 °F 14.9 °F 30.25 in NNE 5.5 mph 29.0 mph 66 % 0.00 in
09:24 24.7 °F 15.3 °F 30.25 in ENE 7.9 mph 29.0 mph 67 % 0.00 in
09:29 24.7 °F 15.6 °F 30.26 in ENE 7.1 mph 29.0 mph 68 % 0.00 in
09:34 24.7 °F 16.0 °F 30.25 in NNE 5.3 mph 29.0 mph 69 % 0.00 in
09:39 24.6 °F 15.5 °F 30.26 in NE 6.4 mph 29.0 mph 68 % 0.00 in
09:45 24.7 °F 16.0 °F 30.25 in NNE 8.6 mph 29.0 mph 69 % 0.00 in
09:50 24.7 °F 16.3 °F 30.25 in NNE 4.9 mph 29.0 mph 70 % 0.00 in
09:55 24.7 °F 16.6 °F 30.25 in ENE 6.6 mph 29.0 mph 71 % 0.00 in
10:00 24.5 °F 16.8 °F 30.25 in NE 4.4 mph 29.0 mph 72 % 0.00 in
10:05 24.4 °F 17.3 °F 30.25 in NE 9.1 mph 29.0 mph 74 % 0.00 in
10:10 24.4 °F 17.6 °F 30.26 in NE 6.2 mph 29.0 mph 75 % 0.00 in
10:15 24.2 °F 17.7 °F 30.26 in NE 6.1 mph 29.0 mph 76 % 0.00 in
10:20 24.2 °F 18.0 °F 30.26 in ENE 5.6 mph 29.0 mph 77 % 0.00 in
10:25 24.2 °F 18.3 °F 30.26 in NNE 8.0 mph 29.0 mph 78 % 0.00 in
10:30 24.2 °F 18.6 °F 30.25 in North 5.8 mph 29.0 mph 79 % 0.00 in
10:35 24.2 °F 18.9 °F 30.25 in North 6.8 mph 29.0 mph 80 % 0.00 in
10:40 24.1 °F 19.1 °F 30.25 in North 6.6 mph 29.0 mph 81 % 0.00 in
10:45 24.0 °F 19.3 °F 30.25 in NE 7.6 mph 29.0 mph 82 % 0.00 in
10:51 23.9 °F 19.5 °F 30.24 in NNE 9.6 mph 29.0 mph 83 % 0.00 in
10:56 23.8 °F 19.7 °F 30.23 in NE 7.8 mph 29.0 mph 84 % 0.00 in
11:01 23.6 °F 19.8 °F 30.22 in North 7.3 mph 29.0 mph 85 % 0.00 in
11:06 23.6 °F 19.8 °F 30.20 in NNW 8.1 mph 29.0 mph 85 % 0.00 in
11:11 23.4 °F 19.6 °F 30.22 in North 8.4 mph 29.0 mph 85 % 0.00 in
11:16 23.4 °F 19.8 °F 30.22 in NNE 10.4 mph 29.0 mph 86 % 0.00 in
11:21 23.1 °F 19.5 °F 30.22 in NE 6.6 mph 29.0 mph 86 % 0.00 in
11:26 23.1 °F 19.8 °F 30.22 in NNE 7.2 mph 29.0 mph 87 % 0.00 in
11:31 23.0 °F 19.7 °F 30.21 in NNE 8.0 mph 29.0 mph 87 % 0.00 in
11:36 22.9 °F 19.6 °F 30.20 in NNE 8.5 mph 29.0 mph 87 % 0.00 in
11:41 22.8 °F 19.5 °F 30.19 in NNE 7.6 mph 29.0 mph 87 % 0.00 in
11:46 22.7 °F 19.7 °F 30.20 in North 8.4 mph 29.0 mph 88 % 0.00 in
11:51 22.7 °F 19.7 °F 30.19 in NE 8.0 mph 29.0 mph 88 % 0.00 in
11:56 22.7 °F 19.9 °F 30.18 in NNE 11.1 mph 29.0 mph 89 % 0.00 in
12:02 22.6 °F 19.8 °F 30.17 in NNE 9.1 mph 29.0 mph 89 % 0.00 in
12:07 22.6 °F 19.8 °F 30.17 in North 9.7 mph 29.0 mph 89 % 0.01 in
12:12 22.6 °F 19.8 °F 30.18 in NE 9.7 mph 29.0 mph 89 % 0.01 in
12:17 22.6 °F 19.8 °F 30.17 in NNE 8.3 mph 29.0 mph 89 % 0.01 in
12:22 22.6 °F 20.1 °F 30.16 in NNE 9.5 mph 29.0 mph 90 % 0.01 in
12:27 22.6 °F 20.1 °F 30.14 in NNE 11.5 mph 29.0 mph 90 % 0.01 in
12:32 22.6 °F 20.1 °F 30.16 in NE 10.9 mph 29.0 mph 90 % 0.01 in
12:37 22.6 °F 20.1 °F 30.16 in NE 8.7 mph 29.0 mph 90 % 0.01 in
12:42 22.5 °F 20.3 °F 30.15 in NNE 10.2 mph 29.0 mph 91 % 0.02 in
12:47 22.5 °F 20.3 °F 30.14 in NNE 8.6 mph 29.0 mph 91 % 0.02 in
12:52 22.5 °F 20.3 °F 30.14 in NNE 9.2 mph 29.0 mph 91 % 0.02 in
12:57 22.5 °F 20.3 °F 30.12 in NE 12.8 mph 29.0 mph 91 % 0.02 in
13:02 22.5 °F 20.3 °F 30.12 in NE 12.1 mph 29.0 mph 91 % 0.02 in
13:07 22.4 °F 20.2 °F 30.13 in NNE 6.8 mph 29.0 mph 91 % 0.02 in
13:13 22.5 °F 20.3 °F 30.15 in NE 6.7 mph 29.0 mph 91 % 0.02 in
13:18 22.5 °F 20.5 °F 30.13 in NE 11.0 mph 29.0 mph 92 % 0.02 in
13:23 22.3 °F 20.3 °F 30.13 in North 7.2 mph 29.0 mph 92 % 0.02 in
13:28 22.2 °F 20.2 °F 30.13 in North 10.4 mph 29.0 mph 92 % 0.03 in
13:33 22.2 °F 20.2 °F 30.11 in NE 11.6 mph 29.0 mph 92 % 0.03 in
13:38 22.2 °F 20.2 °F 30.13 in North 8.8 mph 29.0 mph 92 % 0.03 in
13:43 22.3 °F 20.6 °F 30.14 in NNW 8.9 mph 29.0 mph 93 % 0.03 in
13:48 22.3 °F 20.6 °F 30.14 in NW 8.5 mph 29.0 mph 93 % 0.03 in
13:53 22.2 °F 20.5 °F 30.12 in North 14.9 mph 29.0 mph 93 % 0.04 in
14:03 22.1 °F 20.4 °F 30.11 in North 10.3 mph 29.0 mph 93 % 0.04 in
14:08 22.2 °F 20.5 °F 30.11 in NNE 7.3 mph 29.0 mph 93 % 0.03 in
14:14 22.2 °F 20.5 °F 30.11 in NE 11.1 mph 29.0 mph 93 % 0.04 in
14:24 22.2 °F 20.5 °F 30.12 in NNE 11.1 mph 29.0 mph 93 % 0.04 in
14:29 22.2 °F 20.5 °F 30.12 in North 7.7 mph 29.0 mph 93 % 0.04 in
14:34 22.3 °F 20.6 °F 30.11 in NE 9.9 mph 29.0 mph 93 % 0.04 in
14:39 22.3 °F 20.6 °F 30.11 in NNW 8.5 mph 29.0 mph 93 % 0.05 in
14:44 22.3 °F 20.6 °F 30.11 in NNE 10.9 mph 29.0 mph 93 % 0.04 in
14:49 22.3 °F 20.6 °F 30.12 in North 9.1 mph 29.0 mph 93 % 0.05 in
14:54 22.3 °F 20.6 °F 30.10 in NNE 12.0 mph 29.0 mph 93 % 0.04 in
14:59 22.3 °F 20.6 °F 30.12 in NNE 8.4 mph 29.0 mph 93 % 0.04 in
15:04 22.3 °F 20.6 °F 30.13 in North 10.0 mph 17.0 mph 93 % 0.00 in
15:09 22.3 °F 20.5 °F 30.12 in NNE 12.0 mph 16.0 mph 93 % 0.00 in
15:14 22.2 °F 20.5 °F 30.10 in NNE 12.0 mph 18.0 mph 93 % 0.00 in
15:19 22.3 °F 20.6 °F 30.09 in NNE 9.0 mph 20.0 mph 93 % 0.00 in
15:24 22.3 °F 20.6 °F 30.11 in NNE 8.0 mph 15.0 mph 93 % 0.00 in
15:29 22.4 °F 20.7 °F 30.10 in NNE 8.0 mph 18.0 mph 93 % 0.00 in
15:34 22.4 °F 20.7 °F 30.09 in NNE 12.0 mph 20.0 mph 93 % 0.00 in
15:39 22.4 °F 20.7 °F 30.08 in North 12.0 mph 20.0 mph 93 % 0.01 in
15:44 22.4 °F 20.7 °F 30.09 in North 12.0 mph 20.0 mph 93 % 0.00 in
15:49 22.3 °F 20.6 °F 30.10 in NNE 7.2 mph 29.0 mph 93 % 0.04 in
15:54 22.4 °F 20.7 °F 30.10 in North 9.0 mph 16.0 mph 93 % 0.00 in
15:59 22.4 °F 20.7 °F 30.08 in North 7.7 mph 29.0 mph 93 % 0.05 in
16:04 22.4 °F 20.7 °F 30.08 in NNE 5.4 mph 29.0 mph 93 % 0.05 in
16:09 22.4 °F 20.7 °F 30.06 in NNE 8.0 mph 21.0 mph 93 % 0.00 in
16:14 22.5 °F 20.8 °F 30.06 in North 8.0 mph 20.0 mph 93 % 0.00 in
16:19 22.5 °F 20.8 °F 30.07 in NNW 9.0 mph 29.0 mph 93 % 0.05 in
16:24 22.4 °F 20.7 °F 30.08 in North 8.0 mph 20.0 mph 93 % 0.00 in
16:29 22.4 °F 20.7 °F 30.07 in North 7.0 mph 18.0 mph 93 % 0.00 in
16:34 22.4 °F 20.7 °F 30.08 in NNW 8.2 mph 29.0 mph 93 % 0.05 in
16:39 22.4 °F 20.7 °F 30.07 in North 9.0 mph 18.0 mph 93 % 0.00 in
16:44 22.4 °F 20.7 °F 30.07 in North 7.0 mph 15.0 mph 93 % 0.00 in
16:49 22.4 °F 20.7 °F 30.05 in North 8.0 mph 18.0 mph 93 % 0.00 in
16:54 22.4 °F 20.7 °F 30.07 in North 14.0 mph 20.0 mph 93 % 0.00 in
16:59 22.4 °F 20.7 °F 30.06 in NNE 8.3 mph 29.0 mph 93 % 0.05 in
17:04 22.4 °F 20.7 °F 30.07 in NNE 13.5 mph 29.0 mph 93 % 0.04 in
17:09 22.5 °F 20.8 °F 30.08 in NNE 8.8 mph 29.0 mph 93 % 0.04 in
17:14 22.5 °F 20.8 °F 30.07 in NNE 6.6 mph 29.0 mph 93 % 0.03 in
17:19 22.5 °F 20.8 °F 30.07 in NNW 6.4 mph 29.0 mph 93 % 0.03 in
17:24 22.5 °F 20.8 °F 30.08 in North 10.9 mph 29.0 mph 93 % 0.02 in
17:30 22.6 °F 21.1 °F 30.08 in NNW 9.0 mph 29.0 mph 94 % 0.03 in
17:35 22.6 °F 20.9 °F 30.08 in NNW 11.2 mph 29.0 mph 93 % 0.03 in
17:40 22.5 °F 20.8 °F 30.08 in NNE 9.2 mph 29.0 mph 93 % 0.02 in
17:45 22.6 °F 20.9 °F 30.08 in NNE 8.3 mph 29.0 mph 93 % 0.02 in
17:50 22.5 °F 21.0 °F 30.08 in NNE 5.7 mph 29.0 mph 94 % 0.02 in
17:55 22.6 °F 21.1 °F 30.09 in North 9.4 mph 29.0 mph 94 % 0.03 in
18:00 22.6 °F 21.1 °F 30.07 in NNE 13.2 mph 29.0 mph 94 % 0.02 in
18:05 22.5 °F 20.8 °F 30.08 in North 14.3 mph 29.0 mph 93 % 0.02 in
18:10 22.5 °F 20.8 °F 30.08 in NNE 8.1 mph 29.0 mph 93 % 0.02 in
18:15 22.6 °F 20.9 °F 30.08 in NNE 12.0 mph 29.0 mph 93 % 0.02 in
18:20 22.6 °F 20.9 °F 30.07 in NNW 5.0 mph 29.0 mph 93 % 0.02 in
18:25 22.6 °F 20.9 °F 30.07 in NNW 10.7 mph 29.0 mph 93 % 0.02 in
18:30 22.6 °F 20.9 °F 30.04 in NNE 11.8 mph 29.0 mph 93 % 0.01 in
18:35 22.6 °F 20.9 °F 30.06 in NE 4.7 mph 29.0 mph 93 % 0.02 in
18:40 22.6 °F 20.9 °F 30.06 in North 10.1 mph 29.0 mph 93 % 0.02 in
18:45 22.6 °F 20.9 °F 30.06 in NNW 7.9 mph 29.0 mph 93 % 0.02 in
18:50 22.6 °F 20.9 °F 30.07 in NNW 11.1 mph 29.0 mph 93 % 0.02 in
18:56 22.6 °F 20.9 °F 30.07 in NNE 12.3 mph 29.0 mph 93 % 0.01 in
19:01 22.5 °F 20.8 °F 30.06 in NNW 7.1 mph 29.0 mph 93 % 0.01 in
19:06 22.5 °F 20.8 °F 30.06 in North 6.0 mph 29.0 mph 93 % 0.01 in
19:11 22.6 °F 20.9 °F 30.06 in NNE 9.0 mph 29.0 mph 93 % 0.01 in
19:16 22.6 °F 20.9 °F 30.07 in NNE 9.7 mph 29.0 mph 93 % 0.01 in
19:21 22.5 °F 20.8 °F 30.07 in NE 7.5 mph 29.0 mph 93 % 0.01 in
19:26 22.4 °F 20.7 °F 30.06 in NNW 10.2 mph 29.0 mph 93 % 0.02 in
19:31 22.3 °F 20.6 °F 30.06 in NNE 9.4 mph 29.0 mph 93 % 0.02 in
19:36 22.3 °F 20.6 °F 30.06 in North 11.4 mph 29.0 mph 93 % 0.01 in
19:41 22.3 °F 20.6 °F 30.06 in North 8.7 mph 29.0 mph 93 % 0.01 in
19:46 22.2 °F 20.5 °F 30.06 in NNW 7.9 mph 29.0 mph 93 % 0.01 in
19:51 22.3 °F 20.6 °F 30.06 in North 7.4 mph 29.0 mph 93 % 0.01 in
19:56 22.2 °F 20.5 °F 30.07 in NNE 5.8 mph 29.0 mph 93 % 0.01 in
20:02 22.2 °F 20.5 °F 30.07 in NNW 10.2 mph 29.0 mph 93 % 0.01 in
20:07 22.2 °F 20.2 °F 30.07 in NNE 10.9 mph 29.0 mph 92 % 0.01 in
20:12 22.2 °F 20.2 °F 30.07 in NW 8.5 mph 29.0 mph 92 % 0.01 in
20:17 22.2 °F 20.2 °F 30.08 in NNE 11.0 mph 29.0 mph 92 % 0.01 in
20:22 22.2 °F 20.2 °F 30.07 in North 7.8 mph 29.0 mph 92 % 0.01 in
20:27 22.2 °F 20.2 °F 30.07 in North 11.1 mph 29.0 mph 92 % 0.00 in
20:32 22.2 °F 20.2 °F 30.07 in NNW 7.6 mph 29.0 mph 92 % 0.00 in
20:37 22.2 °F 20.2 °F 30.07 in NNW 9.1 mph 29.0 mph 92 % 0.00 in
20:42 22.2 °F 20.2 °F 30.07 in NNE 9.4 mph 29.0 mph 92 % 0.00 in
20:47 22.1 °F 19.9 °F 30.08 in North 8.8 mph 29.0 mph 91 % 0.00 in
20:52 22.1 °F 19.9 °F 30.07 in NE 9.1 mph 29.0 mph 91 % 0.00 in
20:57 22.1 °F 19.9 °F 30.07 in North 8.7 mph 29.0 mph 91 % 0.00 in
21:02 22.1 °F 19.9 °F 30.07 in North 10.5 mph 29.0 mph 91 % 0.00 in
21:07 22.1 °F 19.9 °F 30.07 in NNE 7.9 mph 29.0 mph 91 % 0.00 in
21:12 22.0 °F 19.5 °F 30.08 in NNW 8.9 mph 29.0 mph 90 % 0.00 in
21:18 22.0 °F 19.5 °F 30.08 in NNE 5.9 mph 29.0 mph 90 % 0.00 in
21:23 22.0 °F 19.5 °F 30.09 in North 9.7 mph 29.0 mph 90 % 0.00 in
21:28 22.0 °F 19.5 °F 30.09 in NE 7.0 mph 29.0 mph 90 % 0.00 in
21:33 22.0 °F 19.3 °F 30.09 in NNE 9.1 mph 29.0 mph 89 % 0.00 in
21:34 22.0 °F 19.3 °F 30.09 in NNE 7.5 mph 29.0 mph 89 % 0.00 in
21:39 22.0 °F 19.3 °F 30.09 in NNW 4.8 mph 29.0 mph 89 % 0.00 in
21:44 22.0 °F 19.3 °F 30.09 in North 7.2 mph 29.0 mph 89 % 0.00 in
21:49 22.0 °F 19.3 °F 30.09 in NNW 8.0 mph 29.0 mph 89 % 0.00 in
21:54 22.0 °F 19.3 °F 30.10 in NNW 7.4 mph 29.0 mph 89 % 0.00 in
21:59 22.0 °F 19.3 °F 30.09 in North 9.6 mph 29.0 mph 89 % 0.00 in
22:04 21.9 °F 18.9 °F 30.10 in NNW 4.9 mph 29.0 mph 88 % 0.00 in
22:09 21.9 °F 18.9 °F 30.10 in North 6.8 mph 29.0 mph 88 % 0.00 in
22:15 21.9 °F 18.9 °F 30.10 in NW 6.6 mph 29.0 mph 88 % 0.00 in
22:20 21.8 °F 18.8 °F 30.10 in North 5.0 mph 29.0 mph 88 % 0.00 in
22:25 21.8 °F 18.8 °F 30.10 in NNW 7.1 mph 29.0 mph 88 % 0.00 in
22:30 21.8 °F 18.5 °F 30.10 in NE 7.6 mph 29.0 mph 87 % 0.00 in
22:35 21.7 °F 18.4 °F 30.10 in NNW 7.0 mph 29.0 mph 87 % 0.00 in
22:40 21.7 °F 18.4 °F 30.11 in NNE 7.8 mph 29.0 mph 87 % 0.00 in
22:45 21.7 °F 18.4 °F 30.11 in NNW 6.3 mph 29.0 mph 87 % 0.00 in
22:50 21.6 °F 18.1 °F 30.11 in NW 3.3 mph 29.0 mph 86 % 0.00 in
22:55 21.6 °F 18.1 °F 30.11 in NE 8.2 mph 29.0 mph 86 % 0.00 in
23:00 21.5 °F 18.0 °F 30.11 in North 5.0 mph 29.0 mph 86 % 0.00 in
23:05 21.5 °F 18.0 °F 30.11 in NNW 5.3 mph 29.0 mph 86 % 0.00 in
23:10 21.4 °F 17.9 °F 30.11 in North 5.8 mph 29.0 mph 86 % 0.00 in
23:15 21.3 °F 17.5 °F 30.11 in North 4.4 mph 29.0 mph 85 % 0.00 in
23:20 21.3 °F 17.5 °F 30.11 in NNW 4.5 mph 29.0 mph 85 % 0.00 in
23:25 21.4 °F 17.3 °F 30.11 in NNW 7.3 mph 29.0 mph 84 % 0.00 in
23:30 21.2 °F 17.7 °F 30.12 in NNW 5.9 mph 29.0 mph 86 % 0.00 in
23:36 21.2 °F 16.8 °F 30.11 in North 8.5 mph 29.0 mph 83 % 0.00 in
23:41 21.2 °F 17.1 °F 30.11 in NNW 6.4 mph 29.0 mph 84 % 0.00 in
23:46 21.1 °F 17.0 °F 30.12 in WNW 5.2 mph 29.0 mph 84 % 0.00 in
23:51 21.1 °F 17.3 °F 30.12 in NW 4.1 mph 29.0 mph 85 % 0.00 in
23:56 21.1 °F 17.0 °F 30.12 in North 5.7 mph 29.0 mph 84 % 0.00 in
23:58 21.1 °F 17.0 °F 30.12 in NNW 5.4 mph 29.0 mph 84 % 0.00 in
Crab Meadow Weather
Compliments of Weather Underground - 3 mb

Script developed by  Jim McMurry - jmcmurry@mwt.net Adapted for the template by  Wim van der Kuil - Leuven-Template.eu

Astronomy: Space missions to Mars suggest that it once had water.